This is the latest recevied weather packets stored in our database for station/object S57D-6. If no packets are shown the sender has not sent any weather packets the latest 10 day(s).
| Time | Temp. | Humidity | Pressure | Rain* | Wind** | Luminosity | Snow |
|---|---|---|---|---|---|---|---|
| 1778090297 | 15.56° C | 85% | 1008.8 hPa | 0 mm | - | - | - |
| 1778089997 | 15.56° C | 84% | 1008.8 hPa | 0 mm | - | - | - |
| 1778089696 | 15.56° C | 84% | 1008.8 hPa | 0 mm | - | - | - |
| 1778089397 | 16.11° C | 83% | 1008.7 hPa | 0 mm | - | - | - |
| 1778089096 | 16.11° C | 83% | 1009 hPa | 0 mm | - | - | - |
| 1778088495 | 16.67° C | 81% | 1008.9 hPa | 0 mm | - | - | - |
| 1778088196 | 16.67° C | 81% | 1008.8 hPa | 0 mm | - | - | - |
| 1778087895 | 16.67° C | 80% | 1008.9 hPa | 0 mm | - | - | - |
| 1778087294 | 16.67° C | 80% | 1008.9 hPa | 0 mm | - | - | - |
| 1778086998 | 17.22° C | 80% | 1009 hPa | 0 mm | - | - | - |
| 1778086693 | 17.22° C | 81% | 1008.9 hPa | 0 mm | - | - | - |
| 1778086394 | 17.22° C | 81% | 1008.9 hPa | 0 mm | - | - | - |
| 1778086093 | 16.67° C | 81% | 1009 hPa | 0 mm | - | - | - |
| 1778085492 | 17.22° C | 80% | 1009 hPa | 0 mm | - | - | - |
| 1778085193 | 17.22° C | 80% | 1009 hPa | 0 mm | - | - | - |
| 1778084892 | 17.22° C | 80% | 1009.1 hPa | 0 mm | - | - | - |
| 1778084595 | 17.78° C | 81% | 1009.2 hPa | 0 mm | - | - | - |
| 1778084291 | 17.78° C | 81% | 1009.3 hPa | 0 mm | - | - | - |
| 1778083690 | 17.78° C | 82% | 1009.3 hPa | 0 mm | - | - | - |
| 1778083391 | 17.22° C | 82% | 1009.3 hPa | 0 mm | - | - | - |
| 1778083090 | 17.22° C | 83% | 1009.4 hPa | 0 mm | - | - | - |
| 1778082791 | 16.67° C | 84% | 1009.4 hPa | 0 mm | - | - | - |
| 1778082489 | 17.22° C | 84% | 1009.7 hPa | 0 mm | - | - | - |
| 1778081889 | 16.67° C | 85% | 1009.5 hPa | 0 mm | - | - | - |
| 1778081590 | 16.67° C | 87% | 1009.7 hPa | 0 mm | - | - | - |
* Rain latest hour (hover to see other rain measurements)
** Current wind speed in m/s (hover to see current wind gust speed)